TimeEDT,TemperatureF,Dew PointF,Humidity,Sea Level PressureIn,VisibilityMPH,Wind Direction,Wind SpeedMPH,Gust SpeedMPH,PrecipitationIn,Events,Conditions,WindDirDegrees,DateUTC
12:54 AM,48.0,45.0,89,29.99,2.0,North,3.5,-,0.00,Rain,Light Rain,360,2012-10-28 04:54:00
1:54 AM,46.9,45.0,93,29.98,2.0,NNW,3.5,-,0.03,Rain,Light Rain,330,2012-10-28 05:54:00
2:54 AM,46.9,45.0,93,29.96,2.0,North,5.8,-,0.01,,Light Drizzle,360,2012-10-28 06:54:00
3:54 AM,46.9,44.1,90,29.95,2.0,North,5.8,-,0.00,,Light Drizzle,350,2012-10-28 07:54:00
4:54 AM,46.9,44.1,90,29.93,2.0,North,5.8,-,0.00,,Light Drizzle,10,2012-10-28 08:54:00
5:54 AM,46.9,44.1,90,29.93,2.0,North,5.8,-,0.00,,Light Drizzle,10,2012-10-28 09:54:00
6:54 AM,46.9,44.1,90,29.92,2.0,NNW,4.6,-,0.01,,Light Drizzle,330,2012-10-28 10:54:00
7:54 AM,46.9,44.1,90,29.92,2.0,North,4.6,-,0.03,Rain,Light Rain,360,2012-10-28 11:54:00
8:54 AM,46.0,43.0,89,29.92,2.0,North,8.1,-,0.01,Rain,Light Rain,350,2012-10-28 12:54:00
9:54 AM,46.0,43.0,89,29.93,2.0,NNW,6.9,-,0.03,Rain,Light Rain,340,2012-10-28 13:54:00
10:54 AM,46.0,42.1,86,29.93,2.0,Variable,5.8,-,0.00,,Overcast,0,2012-10-28 14:54:00
11:34 AM,46.4,42.8,87,29.91,7.0,NNW,8.1,-,0.00,Rain,Light Rain,340,2012-10-28 15:34:00
11:54 AM,46.0,42.1,86,29.91,7.0,NNW,5.8,-,0.00,Rain,Light Rain,340,2012-10-28 15:54:00
12:54 PM,46.0,43.0,89,29.89,6.0,NNW,5.8,-,0.01,Rain,Light Rain,330,2012-10-28 16:54:00
1:54 PM,46.0,43.0,89,29.87,7.0,Variable,5.8,-,0.01,,Light Drizzle,0,2012-10-28 17:54:00
2:54 PM,46.0,43.0,89,29.85,7.0,North,8.1,-,0.00,,Light Drizzle,350,2012-10-28 18:54:00
3:54 PM,45.0,42.1,90,29.86,4.0,NNW,9.2,-,0.00,,Light Drizzle,340,2012-10-28 19:54:00
4:54 PM,45.0,42.1,90,29.87,4.0,NW,11.5,-,0.04,Rain,Light Rain,320,2012-10-28 20:54:00
5:54 PM,44.1,41.0,89,29.89,4.0,NW,11.5,-,0.07,Rain,Rain,310,2012-10-28 21:54:00
6:54 PM,43.0,39.9,89,29.89,4.0,WNW,8.1,-,0.09,Rain,Light Rain,300,2012-10-28 22:54:00
7:54 PM,43.0,39.9,89,29.91,4.0,NW,8.1,-,0.03,Rain,Light Rain,310,2012-10-28 23:54:00
8:54 PM,42.1,39.0,89,29.91,6.0,WNW,6.9,21.9,0.03,Rain,Light Rain,290,2012-10-29 00:54:00
9:54 PM,41.0,37.9,89,29.91,6.0,NW,10.4,-,0.02,Rain,Light Rain,310,2012-10-29 01:54:00
10:54 PM,41.0,37.9,89,29.91,5.0,NW,9.2,-,0.02,Rain,Light Rain,310,2012-10-29 02:54:00
11:54 PM,41.0,37.9,89,29.90,6.0,NW,8.1,-,0.01,Rain,Light Rain,310,2012-10-29 03:54:00